Flag for Germany Weather past 2 weeks in Garbsen, Lower Saxony, Germany

Now
36 °F

Passing clouds.


Feels Like: 26 °F
Forecast: 33 / 37 °F
Wind: 16 mph from Southwest

Location: Hannover

Current Time: Jan 29, 2015 at 8:16:37 AM

Latest Report: Jan 29, 2015 at 7:50 AM


Visibility: N/A

Pressure: 29.21 "Hg

Humidity: 75%

Dew point: 28 °F

Location of GarbsenLocation

Historic Weather in Garbsen — Graph

°F

Garbsen temperature yesterday

Maximum temperature yesterday: 43 °F (at 1:50 PM)
Minimum temperature yesterday: 36 °F (at 12:20 AM)
Average temperature yesterday: 39 °F

Past Weeks' High & Low Weather Summary

 TemperatureHumidityPressure
High50 °F (Jan 15, 2:50 PM)100% (Jan 20, 4:50 AM)30.30 "Hg (Jan 20, 4:50 AM)
Low23 °F (Jan 21, 5:50 AM)62% (Jan 16, 11:20 AM)29.21 "Hg (Jan 29, 6:20 AM)
Average35 °F87%29.93 "Hg
* Reported Jan 14 7:20 AM — Jan 29 7:20 AM, Garbsen, Weather by CustomWeather, © 2014

Note: Actual official high and low records may vary slightly from our data, if they occured in-between our weather recording intervals... More about our weather records

Advertising

Garbsen weather history for previous 24 hours

 ConditionsComfort  
Time TempWeatherWind HumidityBarometerVisibility
7:20 AM
Jan 29
36 °FPassing clouds.18 mph75%29.21 "HgN/A
6:50 AM36 °FPassing clouds.18 mph75%29.21 "HgN/A
6:20 AM36 °FPassing clouds.17 mph75%29.21 "HgN/A
5:50 AM36 °FPassing clouds.17 mph75%29.24 "HgN/A
5:20 AM36 °FPassing clouds.18 mph75%29.24 "HgN/A
4:20 AM36 °FPassing clouds.20 mph81%29.27 "HgN/A
3:50 AM36 °FPassing clouds.16 mph81%29.27 "HgN/A
3:20 AM36 °FPassing clouds.16 mph81%29.27 "HgN/A
2:50 AM37 °FPassing clouds.16 mph75%29.27 "HgN/A
2:20 AM37 °FPassing clouds.17 mph75%29.27 "HgN/A
1:50 AM37 °FPartly cloudy.18 mph81%29.27 "HgN/A
1:20 AM37 °FPartly cloudy.16 mph81%29.27 "HgN/A
12:50 AM37 °FPassing clouds.16 mph81%29.27 "HgN/A
12:20 AM36 °FPassing clouds.16 mph87%29.30 "HgN/A
11:50 PM
Jan 28
36 °FPassing clouds.16 mph87%29.30 "HgN/A
11:20 PM36 °FPassing clouds.14 mph87%29.30 "HgN/A
10:50 PM36 °FPassing clouds.16 mph87%29.30 "HgN/A
10:20 PM36 °FPartly cloudy.16 mph87%29.30 "HgN/A
9:50 PM37 °FPassing clouds.18 mph81%29.30 "HgN/A
9:20 PM37 °FPartly cloudy.16 mph87%29.30 "HgN/A
8:50 PM37 °FLight rain. Partly cloudy.15 mph87%29.30 "HgN/A
8:20 PM37 °FLight rain. Passing clouds.24 mph93%29.30 "Hg6 mi
7:50 PM39 °FLight rain. Passing clouds.14 mph93%29.27 "HgN/A
7:20 PM39 °FLight rain. Passing clouds.22 mph87%29.27 "HgN/A
6:50 PM39 °FLight rain. Passing clouds.25 mph87%29.30 "HgN/A
6:20 PM39 °FLight rain. Mostly cloudy.20 mph87%29.30 "HgN/A
5:50 PM39 °FLight rain. Partly cloudy.22 mph87%29.33 "HgN/A
5:20 PM41 °FLight rain. Mostly cloudy.24 mph81%29.36 "HgN/A
4:50 PM41 °FLight rain. More clouds than sun.25 mph76%29.36 "HgN/A
4:20 PM41 °FMostly cloudy.26 mph76%29.42 "HgN/A
3:50 PM43 °FPartly sunny.23 mph71%29.45 "HgN/A
3:20 PM43 °FMostly cloudy.24 mph71%29.47 "HgN/A
2:50 PM43 °FPartly sunny.21 mph76%29.50 "HgN/A
2:20 PM43 °FOvercast.16 mph76%29.56 "HgN/A
1:50 PM43 °FMostly cloudy.20 mph76%29.56 "HgN/A
1:20 PM41 °FMostly cloudy.21 mph81%29.59 "HgN/A
12:50 PM41 °FMore clouds than sun.18 mph81%29.65 "HgN/A
12:20 PM41 °FBroken clouds.18 mph81%29.68 "HgN/A
11:50 AM41 °FBroken clouds.16 mph81%29.71 "HgN/A
11:20 AM41 °FBroken clouds.16 mph81%29.74 "HgN/A
10:50 AM41 °FBroken clouds.15 mph81%29.77 "HgN/A
10:20 AM39 °FPartly sunny.16 mph87%29.80 "HgN/A
9:50 AM39 °FPartly sunny.14 mph87%29.83 "HgN/A
9:20 AM39 °FDrizzle. Partly sunny.13 mph87%29.83 "HgN/A
8:50 AM39 °FDrizzle. Partly sunny.10 mph87%29.86 "HgN/A
8:20 AM39 °FPartly sunny.10 mph87%29.89 "HgN/A
Weather by CustomWeather, © 2014

See weather overviewHow to use our weather pages